Regional Weather Roundup
Issued by NWS Newport/Morehead, NC

Current Version | Previous Version | Graphics & Text | Print | Product List | Glossary Off
Versions: 1 2 3 4 5 6 7 8 9 10 11 12 13 14 15 16 17 18 19 20 21 22 23 24 25 26 27 28 29 30 31 32 33 34 35 36 37 38 39 40 41 42 43 44 45 46 47 48 49 50

000
ASUS42 KMHX 211522
RWRMHX
WEATHER ROUNDUP FOR EASTERN NORTH CAROLINA
NATIONAL WEATHER SERVICE NEWPORT/MOREHEAD CITY NC
1100 AM EDT SUN SEP 21 2014

NOTE: "FAIR" INDICATES FEW OR NO CLOUDS BELOW 12,000 FEET
WITH NO SIGNIFICANT WEATHER AND/OR OBSTRUCTIONS TO VISIBILITY

NCZ015>017-031-032-045>047-102-103-211600-
NORTH COAST

CITY           SKY/WX    TMP DP  RH WIND       PRES   REMARKS
EDENTON        CLOUDY    73  70  89 N14       29.81S
ELIZABETH CITY CLOUDY    75  70  84 N16       29.79S
KITTY HAWK     CLOUDY    75  72  89 N15G21    29.74F
MANTEO         CLOUDY    75  71  86 N14G24    29.76S

$$

NCZ045>047-081-094-103-104-211600-
CENTRAL COAST

CITY           SKY/WX    TMP DP  RH WIND       PRES   REMARKS
FRISCO         CLOUDY    73  72  96 VRB7G20   29.73F
SWANQUARTER      N/A     77 N/A N/A N16       29.74S

$$

NCZ095-097-098-100-101-211600-
SOUTHERN COAST

CITY           SKY/WX    TMP DP  RH WIND       PRES   REMARKS
BEAUFORT       CLOUDY    75  69  81 NW18G28   29.81R
CEDAR ISLAND     N/A     75 N/A N/A NW22G29   29.82S
JACKSONVILLE   PTSUNNY   76  68  76 NW14      29.85S
NEWPORT        NOT AVBL
PINEY ISLAND   CLOUDY    76  70  82 NW20G25   29.79R
WILMINGTON     PTSUNNY   76  68  76 NW18      29.88R


$$

NCZ011>013-027>030-043-044-078>080-089-090>093-098-211600-
COASTAL PLAIN

CITY           SKY/WX    TMP DP  RH WIND       PRES   REMARKS
AHOSKIE        PTSUNNY   69  64  85 NW5       29.85S
CLINTON        MOSUNNY   76  64  67 W8        29.91S
ELIZABETHTOWN  MOSUNNY   76  63  63 CALM      29.91F
GOLDSBORO      PTSUNNY   71  67  89 CALM      29.87R
GREENVILLE     CLOUDY    72  64  78 N6        29.88S
HAVELOCK       CLOUDY    74  69  85 NW17      29.83R
KENANSVILLE    PTSUNNY   71  62  74 N7        29.90S
KINSTON        PTSUNNY   73  64  73 NW7       29.88R
NEW BERN       CLOUDY    77  70  78 NW14      29.85R
RICHLANDS      PTSUNNY   75  64  69 NW7       29.87R
ROANOKE RAPIDS NOT AVBL
ROCKY MOUNT    PTSUNNY   70  64  81 W5        29.88S
WASHINGTON     PTSUNNY   72  68  85 NW7       29.84S
WHITEVILLE     MOSUNNY   77  62  61 NW5       29.92S

$$

AMZ130-135-150-152-154-156-158-170-250-252-270-ANZ085-086-088-633-658-670-211600-
MARINE OBSERVATIONS

STATION/POSITION TIME  TEMP    WIND        PRES    WAVE   SWELL
                       AIR SEA DIR/SP/G            HT/PER HT/PER
                 (UTC) (F)     (DEG/KT/KT) (MB)    (FT/S) (FT/S)
CHESAPEAKE LIGHT 1500   72      10/ 18/ 19 1009.0
BUOY 44014       1500   73 70   20/ 19/ 23 1005.4    7/ 7   5/ 8
DUCK             1500   72 74  360/ 21/ 24 1006.7
2E DUCK          1500                        N/A     6/ 8   2/11
OREGON INLET     1500   74 74  340/ 14/ 20 1006.8
BUOY 44095       1500      74                N/A     7/ 8   2/11
20E OREGON INLET NOT AVBL
HATTERAS CG      1500   74 74  330/ 19/ 23 1007.4
DIAMOND BUOY     1500   75     330/ 27/ 31 1005.2    9/ 8   7/ 8
CAPE LOOKOUT     1500   74     320/ 15/ 18 1009.0
BEAUFORT LAB     1500   73 74  330/ 10/ 15 1009.0
30 SE NEW RIVER  1500   74 82  330/ 21/ 27 1010.0    7/ 5   3/10
5 SE WRIGHTSVILL 1500   71 79  330/ 14/ 17   N/A
BUOY 41002       1447   81 82  260/ 23/ 29 1010.2   11/ 8
BUOY 41004       1500   75 81  320/ 16/ 17 1013.8    6/ 7   2/ 9

$$



USA.gov is the U.S. government's official web portal to all federal, state and local government web resources and services.